Welcome to the New NWS' Forecast!
Most changes are behind the scenes, but click here for differences you might notice.
Latest weather observations around

Pine Bluff, Grider Field Airport (KPBF)

Using English Units (Switch to International System of Units)
Date/ Time (CDT) Wind (mph) Vis. (mi) Weather Sky Cond. Temp (°F) Rel. Humidity Wind Chill (°F) Heat Index (°F) Pressure Precip. (in)
Air Dwpt 6 hour Altimeter (inHg) Sea level (inHg) 1 hr 3 hr 6 hr
Max Min
May 24 21:53 WSW 6 10 Mostly Clear FEW085 58 50     75%     29.7 29.7      
May 24 20:53 W 3 10 Clear CLR 61 50     67%     29.69 29.68      
May 24 19:53 WNW 9 10 Clear CLR 65 48     54%     29.67 29.66      
May 24 17:53 W 11 10 Mostly Cloudy BKN095 69 48     47%     29.65 29.64      
May 24 16:53 WNW 11 10 Mostly Cloudy SCT055 BKN100 70 49     47%     29.65 29.64      
May 24 14:53 W 21 10 Mostly Cloudy and Windy BKN100 68 48     49%     29.65 29.65      
May 24 13:53 W 10 10 Cloudy FEW039 BKN085 OVC100 65 53     65%     29.66 29.65      
May 24 12:53   10 Cloudy FEW036 OVC090 66 52     61%     29.66 29.65      
May 24 11:53 W 11 10 Cloudy SCT030 BKN038 OVC090 65 52     63%     29.67 29.66      
May 24 11:46 NW 9 10 Cloudy SCT029 BKN042 OVC090 66 52     61%     29.66        
May 24 11:22 NW 8   Mostly Cloudy BKN028 BKN042 BKN080 64 53     67%     29.66        
May 24 11:02 WNW 13   Mostly Cloudy SCT026 BKN033 BKN080 65 53     65%     29.66        
May 24 10:53 NW 9   Mostly Cloudy BKN026 BKN031 65 54     68%     29.67 29.66      
May 24 09:53 NW 9 10 Mostly Cloudy BKN022 63 54     72%     29.67 29.66      
May 24 08:53 NW 15 10 Mostly Clear FEW070 61 53     75%     29.66 29.65      
May 24 07:53 WNW 10 10 Partly Cloudy SCT070 59 57     93%     29.66 29.65      
May 24 06:53 W 8 10 Clear CLR 58 58     100%     29.65 29.64     0
May 24 05:53 W 6 10 Partly Cloudy SCT006 58 58     100%     29.65 29.64      
May 24 05:01 W 6 10 Mostly Cloudy FEW007 BKN120 59 57     93%     29.64        
May 24 04:53 W 6 10 Mostly Cloudy BKN110 59 57     93%     29.65 29.64 0    
May 24 03:53 WSW 5 10 Light Rain SCT075 OVC110 59 58     96%     29.67 29.66 0 0  
May 24 02:53 WSW 6 10 Light Rain SCT034 OVC085 60 58     93%     29.69 29.69 0    
May 24 01:53 W 8 5 Rain and Fog/Mist OVC075 60 58     93%     29.72 29.71 0    
May 24 00:53 WNW 14 7 Rain SCT060 OVC075 60 58     93%     29.72 29.72 0   0
May 24 00:30 WNW 13 4 Rain and Fog/Mist FEW021 BKN044 OVC060 61 59     93%     29.72   0    
May 24 00:19 WNW 14 2.5 Heavy Rain and Fog/Mist SCT021 BKN036 OVC060 61 59     93%     29.72   0    
May 24 00:06 W 8 6 Light Rain and Fog/Mist SCT022 BKN029 OVC055 62 59     90%     29.72   0    
May 23 23:53 WNW 6 3 Heavy Rain and Fog/Mist BKN031 OVC045 63 59     87%     29.72 29.71 0    
May 23 22:53 N 6 10 Light Rain BKN060 BKN080 OVC100 65 57     76%     29.72 29.71 0    
May 23 21:53 NW 3 10 Cloudy SCT065 BKN085 OVC110 66 59     78%     29.72 29.72      
May 23 20:53 W 9 10 Partly Cloudy SCT060 SCT120 66 58     75%     29.7 29.7      
May 23 19:53 WSW 9 10 Clear CLR 68 59     73%     29.7 29.7      
May 23 18:53 SW 10 10 Partly Cloudy SCT055 70 62     76%     29.7 29.69 0   0
May 23 18:06 SW 6 10 Partly Cloudy FEW045 SCT095 72 61     68%   72 29.69   0    
May 23 17:53 WSW 6 10 Light Rain FEW045 SCT095 BKN120 73 62     68%   73 29.69 29.68 0    
May 23 17:49 WSW 6 10 Light Rain FEW045 BKN095 BKN120 73 63     69%   74 29.69   0    
May 23 16:53 WSW 5 10 Mostly Clear FEW044 75 60     60%   75 29.71 29.7      
May 23 15:53 SW 8 10 Partly Cloudy FEW040 SCT070 SCT085 77 60     56%   77 29.73 29.72      
May 23 14:53 NW 3 10 Mostly Cloudy SCT040 BKN048 BKN120 75 60     60%   75 29.75 29.75      
May 23 13:53 NNW 6 10 Mostly Clear FEW100 75 58     55%   75 29.77 29.76      
May 23 12:53 W 7 10 Mostly Cloudy BKN033 74 59     60%   74 29.79 29.79      
May 23 11:53 7 10 Mostly Clear FEW032 73 60     64%   73 29.8 29.79      
May 23 10:53 W 9 10 Clear CLR 70 58     66%     29.81 29.8      
May 23 09:53 W 6 10 Clear CLR 69 58     68%     29.82 29.81      
May 23 08:53 WNW 8 10 Mostly Cloudy BKN031 67 58     73%     29.85 29.84      
May 23 07:53 WNW 7 10 Mostly Clear FEW033 65 59     81%     29.84 29.83      
May 23 06:53 Calm 10 Mostly Clear FEW120 63 59     87%     29.82 29.81      
May 23 05:53 Calm 10 Cloudy OVC031 63 58     84%     29.83 29.82      
May 23 04:53 W 6 10 Cloudy OVC032 63 60     90%     29.85 29.84      
May 23 03:53 Calm 10 Mostly Cloudy BKN036 63 61     93%     29.86 29.85      
May 23 02:53 Calm 10 Cloudy OVC041 64 60     87%     29.87 29.86      
May 23 01:53 Calm 10 Cloudy OVC034 64 61     90%     29.89 29.88      
May 23 00:53 WNW 3 10 Cloudy OVC034 64 60     87%     29.91 29.9      
May 22 23:53 Calm 10 Cloudy FEW037 SCT047 OVC060 64 61     90%     29.93 29.92      
May 22 22:53 WNW 3 10 Cloudy OVC049 64 59     84%     29.94 29.94      
May 22 21:53 Calm 10 Cloudy OVC048 65 58     78%     29.95 29.94      
May 22 20:53 Calm 10 Cloudy OVC049 65 57     76%     29.96 29.95      
May 22 19:53 Calm 10 Cloudy OVC050 66 57     73%     29.96 29.96      
May 22 18:53 Calm 10 Cloudy OVC060 66 57     73%     29.97 29.96     0
May 22 17:53 Calm 10 Cloudy BKN070 OVC090 66 57     73%     29.97 29.96      
May 22 16:53 Calm 10 Cloudy OVC090 66 57     73%     30 29.99      
May 22 15:53 SE 3 10 Cloudy OVC090 67 56     68%     30.02 30.01   0  
May 22 14:53 E 5 10 Cloudy OVC100 67 55     66%     30.05 30.04      
May 22 13:53 NNE 6 10 Cloudy OVC110 68 54     61%     30.05 30.04 0    
May 22 12:53 ENE 8 10 Light Rain FEW050 FEW080 BKN100 66 56     70%     30.07 30.06 0   0
May 22 11:53 E 3 10 Light Rain OVC110 65 56     73%     30.12 30.11 0    
May 22 10:53 E 8 10 Mostly Cloudy BKN110 65 54     68%     30.1 30.09      
May 22 09:53 ENE 7 10 Clear CLR 64 55     73%     30.11 30.1      
May 22 08:53 NNE 6 10 Clear CLR 63 55     75%     30.15 30.14      
May 22 07:53 NE 6 10 Clear CLR 63 55     75%     30.15 30.14      
May 22 06:53 Calm 10 Clear CLR 60 57     90%     30.14 30.14      
May 22 05:53 S 3 10 Clear CLR 62 53     72%     30.13 30.12      
May 22 04:53 N 5 10 Clear CLR 60 55     83%     30.12 30.11      
May 22 03:53 Calm 10 Clear CLR 62 53     72%     30.11 30.1      
May 22 02:53 N 3 10 Clear CLR 58 55     90%     30.1 30.1      
May 22 01:53 Calm 10 Clear CLR 61 56     83%     30.11 30.1      
May 22 00:53 N 6 10 Clear CLR 61 55     81%     30.1 30.09      
May 21 23:53 N 3 10 Clear CLR 64 54     70%     30.13 30.12      
May 21 22:53 Calm 10 Clear CLR 65 55     70%     30.13 30.13      
May 21 21:53 N 8 10 Clear CLR 64 55     73%     30.12 30.11      
May 21 20:53 Calm 10 Clear CLR 69 55     61%     30.13 30.12      
May 21 19:53 Calm 10 Clear CLR 69 60     73%     30.08 30.07      
May 21 18:53 N 8 10 Clear CLR 74 55     52%   73 30.08 30.07      
May 21 17:53 NNW 11 10 Clear CLR 77 53     43%   76 30.08 30.08      
May 21 16:53 NNW 10 10 Clear CLR 77 55     47%   77 30.06 30.05      
May 21 15:53 N 11 10 Clear CLR 75 52     45%   74 30.06 30.05      
May 21 14:53 5 10 Clear CLR 73 61     66%   73 30.11 30.1      
May 21 13:53 SW 7 10 Clear CLR 73 56     55%   73 30.13 30.12      
May 21 12:53 NNW 7 10 Cloudy OVC046 73 52     48%   72 30.14 30.13     0
May 21 11:53 N 9 10 Partly Cloudy SCT041 SCT055 74 54     50%   73 30.14 30.13      
May 21 10:53 NNW 11 10 Clear CLR 72 55     55%   71 30.12 30.11      
May 21 09:53 NNW 11 10 Cloudy OVC030 69 58     68%     30.13 30.13   0  
May 21 08:53 N 7 10 Mostly Cloudy FEW012 SCT035 BKN100 67 60     79%     30.13 30.12 0    
May 21 07:53 Calm 10 Light Rain BKN037 BKN100 64 62     93%     30.11 30.1 0    
May 21 07:50 N 5 10 Light Rain BKN037 BKN055 BKN100 64 63     94%     30.11   0    
May 21 07:43 NW 5 3 Thunderstorms and Rain and Fog/Mist BKN041 BKN047 OVC100 64 62     93%     30.11   0    
May 21 07:25 NW 8 1.75 Thunderstorms and Heavy Rain BKN047 OVC060 65 60     84%     30.12   0    
May 21 07:17 NW 10 3 Thunderstorms and Heavy Rain and Fog/Mist OVC049 65 61     87%     30.12   0    
May 21 06:53 NW 5 10 Cloudy OVC047 66 61     84%     30.11 30.1     0
May 21 06:41 NNW 7 10 Cloudy OVC046 66 61     84%     30.1        
May 21 05:53 N 10 10 Mostly Cloudy BKN047 BKN065 BKN075 66 61     84%     30.08 30.07 0    
May 21 05:28 N 8 10 Mostly Cloudy SCT024 BKN046 BKN075 66 64     93%     30.07   0    
May 21 05:00   6 Heavy Rain and Fog/Mist SCT020 BKN024 OVC043 66 64     93%     30.08   0    
May 21 04:53 W 5 10 Light Rain SCT018 OVC042 67 64     90%     30.07 30.06 0    
May 21 04:40 NW 6 10 Cloudy OVC042 67 64     90%     30.06   0    
May 21 04:25 NW 7 10 Thunderstorms and Rain OVC038 67 64     90%     30.06   0    
May 21 04:13 WNW 7 10 Light Rain FEW027 OVC034 67 65     93%     30.06   0    
May 21 04:00 WNW 6 10 Cloudy SCT027 OVC032 68 65     90%     30.05        
May 21 03:53 WNW 6 10 Cloudy BKN027 OVC032 68 66     93%     30.05 30.05 0 0  
May 21 03:39 WNW 9 7 Light Rain BKN027 OVC045 68 65     90%     30.05   0    
May 21 03:12 NW 10 10 Thunderstorms BKN027 OVC032 70 65     84%     30.03        
May 21 02:53 NW 14 10 Cloudy BKN032 OVC043 70 65     84%     30.02 30.01      
May 21 02:50 NW 13 10 Cloudy BKN032 OVC043 72 64     78%   72 30.01        
May 21 01:53 NW 7 10 Cloudy FEW018 OVC045 71 68     90%   72 30.01 30      
May 21 01:22 NW 8 10 Cloudy FEW009 BKN045 OVC110 71 68     90%   72 30.01        
May 21 00:53 Calm 10 Cloudy FEW065 OVC100 71 68     90%   72 30 29.99      
May 20 23:53 SW 3 10 Cloudy FEW080 OVC095 71 68     90%   72 30 29.99      
May 20 22:53 S 3 10 Partly Cloudy SCT095 71 69     93%   72 29.99 29.98      
May 20 21:53 Calm 10 Mostly Cloudy BKN065 72 69     91%   73 29.97 29.96      
May 20 20:53 SSE 5 10 Mostly Cloudy BKN070 73 70     90%   74 29.96 29.95      
May 20 19:53 W 3 10 Mostly Cloudy BKN085 74 68     82%   75 29.94 29.93      
May 20 18:53 S 6 10 Clear CLR 76 68     76%   77 29.93 29.92      
May 20 17:53 SSE 6 10 Clear CLR 76 68     76%   77 29.94 29.93      
May 20 16:53 SSE 6 10 Clear CLR 76 67     74%   77 29.92 29.91      
May 20 15:53 SW 7 10 Clear CLR 74 67     79%   75 29.93 29.91      
May 20 15:20 SSE 3 10 Partly Cloudy SCT014 73 67     81%   74 29.93        
May 20 15:06 SE 6 10 Mostly Cloudy BKN014 74 67     79%   75 29.93        
May 20 14:53 SE 9 10 Partly Cloudy SCT013 SCT110 74 67     79%   75 29.93 29.92      
May 20 14:28 E 13 10 Partly Cloudy FEW090 SCT110 71 66     84%   72 29.9        
May 20 13:53 SSE 7 10 Mostly Clear FEW012 72 66     82%   73 29.98 29.97      
May 20 12:53 E 8 10 Mostly Clear FEW120 72 66     82%   73 29.98 29.97     1
May 20 11:53 ENE 13 10 Mostly Cloudy FEW040 BKN095 68 66     93%     29.96 29.96 0    
May 20 11:30 ENE 11 10 Light Rain FEW041 SCT070 BKN110 66 65     96%     29.99   0    
May 20 10:59 NE 6 3 Thunderstorms and Rain and Fog/Mist FEW008 BKN055 OVC100 65 64     97%     30.02   0    
May 20 10:53 ENE 8 2 Heavy Rain and Fog/Mist FEW008 BKN038 OVC070 65 64     97%     30.02 30.01 0    
May 20 10:46 N 9 2 Heavy Rain and Fog/Mist FEW008 BKN030 OVC055 65 64     97%     30.03   0    
May 20 10:42 N 7 1.75 Thunderstorms and Heavy Rain and Fog/Mist FEW008 BKN030 OVC055 65 64     97%     30.03   0    
May 20 10:31 N 9 2.5 Thunderstorms and Heavy Rain and Fog/Mist FEW014 SCT044 OVC055 65 64     97%     30.03   0    
May 20 10:23 N 9 3 Heavy Rain and Fog/Mist FEW010 BKN035 OVC055 65 64     97%     30.03   0    
May 20 10:02 N 9 2 Heavy Rain and Fog/Mist SCT010 BKN018 OVC028 66 64     93%     30.03   0    
May 20 09:53 N 14 5 Heavy Rain and Fog/Mist FEW010 BKN022 OVC028 66 64     93%     30.01 30.01 0 0  
May 20 09:33   10 Light Rain BKN016 OVC022 68 63     84%     30   0    
May 20 09:24   10 Cloudy BKN016 OVC022 69 63     81%     29.99        
May 20 08:53 SSW 6 10 Cloudy BKN017 OVC023 77 71     82%   78 29.97 29.96      
May 20 08:35 SSW 7 10 Cloudy OVC016 78 72     82%   79 29.97        
May 20 08:20 SW 8 10 Cloudy BKN014 OVC023 77 72     84%   78 29.96        
May 20 08:05 S 8 10 Mostly Cloudy BKN015 77 72     84%   78 29.96        
May 20 07:53 S 8 10 Partly Cloudy SCT015 77 72     84%   78 29.95 29.94      
May 20 06:53 SSE 11 10 Clear CLR 75 71     88%   76 29.92 29.91      
May 20 05:53 S 8 10 Clear CLR 74 70     87%   75 29.91 29.9      
May 20 04:53 S 10 10 Mostly Cloudy BKN110 76 70     82%   77 29.91 29.9      
May 20 03:53 S 14 10 Cloudy FEW029 OVC110 77 70     79%   78 29.89 29.88      
May 20 02:53 S 16 10 Mostly Clear FEW100 77 70     79%   78 29.87 29.86      
May 20 01:53 SSE 9 10 Cloudy OVC100 76 71     85%   77 29.87 29.86      
May 20 00:53 SSE 9 10 Mostly Cloudy BKN100 76 71     85%   77 29.88 29.87      
May 19 23:53 SSE 7 10 Mostly Clear FEW100 77 71     82%   78 29.89 29.88      
May 19 22:53 SE 10 10 Mostly Cloudy SCT055 BKN110 77 72     84%   78 29.87 29.86      
May 19 21:53 ESE 8 10 Mostly Clear FEW100 78 73     85%   80 29.88 29.87      
May 19 20:53 ESE 10 10 Clear   80 73     79%   84 29.87 29.86      
May 19 19:53 SE 9 10 Clear CLR 81 73     77%   86 29.85 29.84      
May 19 18:53 SE 9 10 Mostly Cloudy BKN110 84 72     67%   90 29.85 29.84     0
May 19 17:53 SSE 10 10 Mostly Clear FEW065 86 73     65%   93 29.86 29.85 0    
May 19 17:45 SSE 11 10 Partly Cloudy FEW065 SCT110 86 73     65%   93 29.86   0    
May 19 16:53 S 13 10 Partly Cloudy SCT100 85 71     63%   90 29.86 29.85      
May 19 14:53 SE 11 10 Mostly Cloudy BKN039 BKN055 BKN090 84 72     67%   90 29.9 29.88      
May 19 13:53 SSE 15 10 Mostly Cloudy BKN035 87 72     61%   94 29.9 29.89      
May 19 12:53 S 10 10 Partly Cloudy FEW034 SCT042 SCT050 86 71     61%   92 29.93 29.92      
May 19 11:53 SSE 11 10 Mostly Clear FEW031 FEW042 85 72     65%   91 29.95 29.94      
May 19 11:33 S 13 10 Mostly Cloudy SCT026 SCT034 BKN044 84 72     67%   90 29.96        
May 19 11:20 S 13 10 Mostly Cloudy BKN026 BKN037 BKN060 84 72     67%   90 29.96        
May 19 10:53 S 13 10 Partly Cloudy FEW025 SCT034 83 72     70%   88 29.95 29.94      
May 19 10:06 S 10 10 Mostly Cloudy SCT020 BKN033 80 72     76%   84 29.95        
May 19 09:53 S 10 10 Mostly Cloudy SCT017 BKN028 BKN033 80 72     76%   84 29.96 29.95      
May 19 09:18 S 11 10 Mostly Cloudy BKN015 BKN020 79 73     82%   82 29.96        
May 19 09:11 S 10 10 Mostly Cloudy BKN013 BKN019 79 73     82%   82 29.96        
May 19 08:53 SSE 10 10 Partly Cloudy SCT011 78 73     85%   80 29.96 29.95      
May 19 08:28 SSE 6 10 Mostly Cloudy BKN011 75 72     90%   76 29.95        
May 19 07:53 SSE 7 10 Mostly Clear FEW025 75 71     88%   76 29.95 29.94      
May 19 07:44 SE 3 10 Partly Cloudy SCT025 74 71     91%   75 29.95        
May 19 07:29 SE 3 10 Cloudy BKN025 BKN032 OVC075 74 71     91%   75 29.96        
May 19 06:53 E 3 10 Mostly Cloudy BKN075 73 71     94%   74 29.95 29.94      
May 19 06:42 E 5 10 Mostly Cloudy FEW021 SCT026 BKN075 73 70     90%   74 29.94        
May 19 05:53 Calm 10 Mostly Cloudy BKN028 72 70     93%   73 29.94 29.93      
May 19 04:53 SE 6 10 Mostly Clear FEW080 72 69     91%   73 29.93 29.92      
May 19 03:53 S 3 10 Clear   73 68     84%   74 29.94 29.93      
May 19 02:53 S 8 10 Clear CLR 74 68     82%   75 29.93 29.92      
May 19 01:53 S 9 10 Partly Cloudy FEW045 FEW055 SCT090 74 68     82%   75 29.92 29.91      
May 19 00:53 SSE 6 10 Clear CLR 73 68     84%   74 29.91 29.9      
May 18 23:53 S 5 10 Clear CLR 74 69     85%   75 29.9 29.89      
May 18 22:53 SE 6 10 Clear CLR 75 69     82%   76 29.9 29.88      
May 18 21:53 SSE 7 10 Clear CLR 77 69     77%   78 29.86 29.85      
May 18 20:53 SE 8 10 Clear CLR 78 70     76%   79 29.84 29.83      
May 18 19:53 S 6 10 Clear CLR 80 70     71%   83 29.85 29.84      
May 18 18:53 SSE 8 10 Clear CLR 85 70     61%   89 29.84 29.83      
May 18 17:53 SSE 8 10 Clear CLR 85 70     61%   89 29.86 29.85      
May 18 16:53 S 10 10 Mostly Clear FEW060 FEW080 86 70     59%   91 29.87 29.86      
May 18 15:53 SSE 13 10 Mostly Cloudy SCT039 SCT047 BKN090 86 70     59%   91 29.88 29.87      
May 18 14:53 SSE 14 10 Partly Cloudy FEW042 SCT049 SCT060 85 69     59%   89 29.89 29.88      
May 18 13:53 S 15 10 Partly Cloudy FEW034 SCT045 SCT055 85 69     59%   89 29.91 29.9      
May 18 12:53 S 16 10 Partly Cloudy SCT029 84 70     63%   88 29.93 29.92      
May 18 12:18 S 14 10 Mostly Cloudy BKN029 BKN038 83 70     65%   87 29.94        
May 18 11:53 S 16 10 Partly Cloudy SCT033 SCT065 82 71     69%   86 29.95 29.94      
May 18 10:53 S 14 10 Mostly Cloudy BKN022 BKN060 79 70     74%   82 29.95 29.94      
May 18 10:44 S 13 10 Cloudy BKN022 OVC060 78 69     74%   79 29.95        
May 18 09:53 S 16 10 Mostly Clear FEW065 FEW080 77 69     77%   78 29.94 29.93      
May 18 08:53 S 14 10 Mostly Cloudy SCT050 BKN060 75 69     82%   76 29.93 29.92      
May 18 07:53 S 13 10 Mostly Cloudy BKN047 BKN060 73 68     84%   74 29.92 29.91      
May 18 06:53 S 10 10 Cloudy FEW065 OVC100 72 68     87%   73 29.91 29.9      
May 18 05:53 S 13 10 Mostly Cloudy FEW070 BKN100 71 67     87%   72 29.89 29.88      
May 18 04:53 S 13 10 Mostly Cloudy FEW080 BKN110 72 67     84%   73 29.89 29.88      
May 18 03:53 S 11 10 Mostly Cloudy FEW075 BKN110 73 66     79%   74 29.88 29.87      
May 18 02:53 S 9 10 Cloudy FEW070 OVC100 74 65     74%   74 29.87 29.86      
May 18 01:53 S 9 10 Cloudy OVC090 73 65     76%   74 29.87 29.86      
May 18 00:53 S 9 10 Mostly Cloudy BKN090 74 65     74%   74 29.86 29.85      
May 17 23:53 S 11 10 Clear   75 65     71%   76 29.85 29.84      
May 17 22:53 S 11 10 Mostly Clear FEW065 75 66     74%   76 29.85 29.83      
May 17 21:53 S 8 10 Clear CLR 75 67     76%   76 29.84 29.83      
May 17 20:53 S 8 10 Cloudy OVC065 77 68     74%   78 29.82 29.81      
May 17 19:53 S 7 10 Cloudy OVC060 78 68     71%   79 29.81 29.8      
May 17 18:53 S 9 10 Cloudy BKN065 OVC080 79 67     67%   80 29.8 29.79     0
May 17 17:53 S 11 10 Cloudy OVC060 80 68     67%   83 29.8 29.79 0    
May 17 16:53 S 9 10 Light Rain OVC060 80 67     64%   82 29.8 29.79 0    
May 17 15:53 S 14 10 Mostly Cloudy BKN070 81 66     61%   83 29.79 29.78      
May 17 14:53 S 20 10 Mostly Cloudy and Windy SCT070 BKN080 82 66     58%   84 29.8 29.79      
May 17 13:53 S 24 10 Mostly Cloudy and Windy BKN046 BKN075 82 65     56%   84 29.81 29.8      
May 17 12:53 S 22 10 Partly Cloudy and Windy FEW043 SCT050 SCT080 83 65     55%   85 29.83 29.82      
May 17 11:53 S 23 10 Clear and Windy CLR 82 66     58%   84 29.83 29.82      
May 17 10:53 S 22 10 Clear and Windy CLR 80 66     62%   82 29.85 29.84      
May 17 09:53 S 16 10 Clear CLR 77 66     69%   78 29.87 29.85      
May 17 08:53 SSE 15 10 Clear CLR 71 64     79%   72 29.9 29.89      
May 17 07:53 S 10 10 Clear CLR 69 63     81%     29.92 29.91      
May 17 06:53 WSW 6 10 Mostly Cloudy SCT041 BKN050 68 63     84%     29.93 29.92      
May 17 05:53 SSW 9 10 Clear CLR 68 63     84%     29.84 29.83      
May 17 04:53 S 11 10 Clear CLR 68 62     81%     29.79 29.78      
May 17 03:53 S 9 10 Clear CLR 68 62     81%     29.8 29.79      
May 17 02:53 S 11 10 Clear CLR 70 62     76%     29.81 29.8      
May 17 01:53 S 11 10 Clear CLR 70 62     76%     29.81 29.8      
May 17 00:53 SE 5 10 Clear CLR 68 61     78%     29.82 29.81      
May 16 23:53 S 6 10 Clear CLR 70 61     73%     29.83 29.82      
May 16 22:53 SSE 9 10 Clear CLR 72 62     71%   72 29.84 29.83      
May 16 21:53 S 11 10 Clear CLR 74 62     66%   74 29.85 29.83      
May 16 20:53 S 9 10 Clear CLR 75 63     66%   75 29.84 29.83      
May 16 19:53 S 10 10 Clear CLR 78 63     60%   78 29.84 29.83      
May 16 18:53 S 14 10 Clear CLR 81 63     54%   82 29.85 29.84      
May 16 17:53 S 14 10 Clear CLR 82 63     53%   83 29.86 29.85      
May 16 16:53 SSE 15 10 Mostly Clear FEW055 83 63     51%   84 29.88 29.87      
May 16 15:53 SSE 14 10 Partly Cloudy SCT055 85 64     50%   86 29.89 29.88      
May 16 14:53 SSE 14 10 Mostly Cloudy BKN055 84 63     49%   85 29.92 29.91      
May 16 13:53 SSW 14 10 Partly Cloudy SCT050 84 62     48%   85 29.94 29.93      
May 16 12:53 S 16 10 Mostly Clear FEW050 83 63     51%   84 29.95 29.94      
May 16 11:53 S 13 10 Mostly Clear FEW046 82 65     56%   84 29.97 29.96      
May 16 10:53 S 16 10 Clear CLR 80 65     60%   82 29.98 29.97      
May 16 09:53 SW 8 10 Partly Cloudy SCT055 77 63     62%   77 29.99 29.98      
May 16 08:53 SSW 6 10 Clear CLR 73 64     73%   73 29.99 29.98      
May 16 07:53 S 6 10 Clear CLR 69 63     81%     29.97 29.96      
May 16 06:53 Calm 10 Clear CLR 64 61     90%     29.96 29.95      
May 16 05:53 S 3 10 Clear CLR 64 60     87%     29.95 29.94      
May 16 04:53 S 5 10 Clear CLR 64 60     87%     29.95 29.93      
May 16 03:53 SSW 3 10 Clear CLR 66 60     81%     29.94 29.93      
May 16 02:53 SSW 5 10 Clear CLR 65 60     84%     29.93 29.92      
May 16 01:53 SSW 3 10 Clear CLR 66 61     84%     29.92 29.91      
May 16 00:53 SSE 5 10 Clear CLR 67 63     87%     29.92 29.91      
May 15 23:53 Calm 10 Clear CLR 67 64     90%     29.94 29.93      
May 15 22:53 S 3 10 Clear CLR 70 63     78%     29.94 29.93      
May 15 21:53 SSW 3 10 Clear CLR 72 63     73%   72 29.94 29.93      
May 15 20:53 S 5 10 Clear CLR 74 64     71%   74 29.93 29.92      
May 15 19:53 S 6 10 Clear CLR 76 62     62%   76 29.93 29.92      
May 15 18:53 S 8 10 Clear   82 59     46%   82 29.93 29.92      
May 15 17:53 S 8 10 Clear CLR 83 62     49%   84 29.93 29.92      
May 15 16:53 S 7 10 Clear CLR 84 61     46%   84 29.93 29.93      
May 15 15:53 6 10 Mostly Clear FEW050 83 61     48%   83 29.95 29.94      
May 15 14:53 6 10 Clear CLR 83 60     46%   83 29.96 29.96      
May 15 13:53 S 9 10 Partly Cloudy SCT050 83 63     51%   84 29.99 29.98      
May 15 12:53 SSW 8 10 Partly Cloudy SCT050 82 61     49%   83 30 29.99      
May 15 11:53 WSW 8 10 Mostly Cloudy BKN050 79 58     49%   79 30.02 30.01      
May 15 10:53 7 10 Mostly Clear FEW050 80 58     47%   80 30.02 30.01      
May 15 09:53 S 8 10 Clear CLR 77 63     62%   77 30.01 30      
May 15 08:53 SSE 6 10 Clear CLR 72 62     71%   72 30 30      
May 15 07:53 Calm 10 Clear CLR 67 62     84%     29.99 29.99      
May 15 06:53 Calm 10 Clear CLR 63 60     90%     29.99 29.98      
May 15 05:53 Calm 5 Fog/Mist CLR 60 59     96%     29.98 29.97      
May 15 04:53 Calm 10 Clear CLR 60 58     93%     29.97 29.96      
May 15 03:53 Calm 9 Clear CLR 62 61     96%     29.96 29.96      
May 15 02:53 Calm 10 Clear CLR 62 60     93%     29.96 29.95      
May 15 01:53 Calm 10 Clear CLR 63 60     90%     29.96 29.96      
May 15 00:53 Calm 10 Clear CLR 64 61     90%     29.95 29.94      
May 14 23:53 SSW 3 10 Clear CLR 66 63     90%     29.95 29.94      
May 14 22:53 Calm 10 Clear CLR 68 65     90%     29.95 29.94      
May 14 21:53 Calm 10 Clear CLR 70 64     81%     29.95 29.94      
May 14 20:53 Calm 10 Clear CLR 72 65     79%   73 29.93 29.92      
May 14 19:53 SSE 5 10 Clear CLR 76 62     62%   76 29.92 29.92      
May 14 18:53 SSE 6 10 Partly Cloudy SCT050 80 61     52%   81 29.92 29.91      
May 14 17:53 Calm 10 Mostly Clear FEW050 81 60     49%   82 29.93 29.92      
May 14 16:53 SE 6 10 Clear CLR 80 59     49%   81 29.93 29.93      
May 14 15:53 5 10 Clear CLR 80 59     49%   81 29.94 29.94      
May 14 14:53 Calm 10 Clear CLR 79 58     49%   79 29.97 29.96      
May 14 13:53 SSW 6 10 Clear CLR 78 58     50%   78 29.99 29.98      
May 14 12:53 ESE 6 10 Clear CLR 79 58     49%   79 30 29.99      
May 14 11:53 Calm 10 Clear CLR 75 54     48%   74 30.01 30.01      
May 14 10:53 3 10 Clear CLR 74 57     56%   74 30.03 30.02      
May 14 09:53 Calm 10 Clear CLR 71 58     63%   71 30.03 30.03      
May 14 08:53 Calm 10 Clear CLR 69 57     65%     30.03 30.03      
May 14 07:53 Calm 9 Clear CLR 62 59     90%     30.02 30.02      
May 14 06:53 Calm 9 Clear CLR 56 56     100%     30.01 30      
May 14 06:34 Calm 5 Fog/Mist CLR 56 55     97%     30        
Notice The following observation data may not be complete
May 14 06:20   0.75 Fog/Mist CLR          %              
May 14 06:11 Calm 1.5 Fog/Mist CLR 56 54     93%     29.99        
May 14 05:53 Calm 10 Clear CLR 56 55     97%     29.99 29.98      
May 14 04:53 Calm 10 Clear CLR 56 55     97%     29.97 29.96      
May 14 03:53 Calm 8 Clear CLR 56 55     97%     29.94 29.93      
May 14 02:53 Calm 10 Clear CLR 58 56     93%     29.93 29.93      
May 14 01:53 Calm 10 Clear CLR 59 56     90%     29.94 29.93      
May 14 00:53 Calm 10 Clear CLR 58 57     97%     29.94 29.93      
May 13 23:53 Calm 10 Clear CLR 61 58     90%     29.94 29.93      
May 13 22:53 NNW 3 10 Clear CLR 61 58     90%     29.93 29.92      
May 13 21:53 Calm 10 Clear CLR 65 57     76%     29.93 29.92      
May 13 20:53 Calm 10 Clear CLR 65 57     76%     29.92 29.91      
May 13 19:53 N 6 10 Clear CLR 70 54     57%     29.92 29.91      
May 13 18:53 N 7 10 Clear CLR 74 54     50%   73 29.91 29.91      
May 13 17:53 N 13 10 Clear CLR 75 53     46%   74 29.92 29.91